SCOUT X-4 R/B, 1358

Orbit data source: Space-Track

SCOUT X-4 R/B, 1358 is space debris in LEO originally from a launch on Thu, 29 Apr 1965 UTC launched from the Wallops Island (WLPIS). Debris objects in space refer to the collection of defunct objects orbiting the Earth. Examples of debris include non-operational satellites, rocket bodies, and fragments generated from explosions, collisions, or faulty payload assembly.

Loading next visibility...
Identifier
1358, 1965-032B
Orbit
LEO
Country
Flag of USUS
Related business
Manufacturer
ABL
Mission
Spacecraft
Bus & Motor
ALTAIR, Unknown motor
Mass
33 kg wet, 33 kg dry
Launch date (UTC)
1965-04-29 (60 years ago)
Launch vehicle
Unknown
Launch site
Wallops Island (WLPIS)
Object type
Payload
Rocket body
Debris
Shape & HBR
Cyl, 0.8 m
Radar Cross Section
0.687 m², Medium (>0.1 m² and < 1m²)

Expand to show TLE details & history
Last TLE update: 1 day ago

TLE from 1 day ago
0 SCOUT X-4 R/B
1 01358U 65032B   25242.31849122 -.00000031  00000-0  81065-4 0  9997
2 01358  41.1883 230.9135 0244077 153.2780 208.0787 13.38222483948703
Epoch: 2025-08-30T07:38Z
TLE epoch observation values (Epoch: 2025-08-30T07:38:37.641Z)
Latitude
Longitude
137.50216°
Altitude
1,277.839 km
Speed
7.14 km/s
True Right ascension
15h 23m 39s
True Declination
0° 00' 00"
Sunlit
Object was in daylight at epoch
Visualization orbit readout
Latitude
Unknown
Longitude
Unknown
Altitude
Unknown
Speed
Unknown
Apparent Right ascension
Unknown
Apparent Declination
Unknown
Sunlit
N/A
Visualization observer readout
Local Sidereal Time
03:02:37
Azimuth
Unknown
Elevation
Unknown
Doppler factor
Unknown
Orbital elements
Apogee altitude
1,300.931 km
Perigee altitude
935.006 km
Semi-major axis
7,496.106 km
Eccentricity
0.02441
Inclination
41.1883°
RAAN
230.9135°
Arg. of periapsis
153.278°
True anomaly
206.79689°
Mean anomaly
208.0787°
Eccentric anomaly
207.43438°
Mean motion
3.34418 °/min
Orbital period
107.65 mins
BSTAR
0.000081065
Loading maneuver chart data...
Computing Atmospheric mass density...
Loading historical data...
Loading historical data...
Loading historical data...
Loading historical data...
Loading historical data...
Loading historical data...
Loading historical data...
Other satellites on launch #32 in the year 1965 (1965-04-29 UTC)

Documentation

Showing up to 5 results
|